sat.trackr.live / text

‹ back to catalog

STARLINK-36806

NORAD 67965 · 2026-038E

PAYLOAD ACTIVE UNKNOWN

§ Identity

Operator
Country
US
Launch date
2026-02-25
Launch site
AFWTR
Launch vehicle
Mass (kg)
RCS (m²)

Purposes: comms

External: N2YO · Heavens-Above · Gunter

§ Orbital elements

Epoch: 2026-09-19T14:32:26.154528Z

Period
93.91 min
Inclination
97.2845°
Eccentricity
0.0002519
Mean motion
15.33450741 rev/d
Perigee alt
463.8 km
Apogee alt
467.3 km
Semi-major
6,843.7 km
B*
6.1850e-4
RAAN
270.9178°
Arg perigee
74.2369°
Mean anomaly
285.9151°
Rev number
3,295

§ Raw data

STARLINK-368061 67965U 26038E   26262.60585827  .00019950  00000+0  61850-3 0  99972 67965  97.2845 270.9178 0002519  74.2369 285.9151 15.33450741 32955

JSON: /api/v1/satellites/67965 · /tle

For live sub-satellite position, see the globe view (requires WebGL).

§ Visibility from observer

Set your observer location to see the next 7 days of passes ≥ 10°. The values pass through the URL so the page stays shareable.

No JS? Fill the form by hand. The geolocation button needs JavaScript.